Flag for U.S.A. Weather past 2 weeks in Memphis, Tennessee, U.S.A.

Now
55 °F

Mostly cloudy.


Feels Like: 52 °F
Forecast: 47 / 54 °F
Wind: 9 mph from South

Location: Memphis International Airport

Current Time: Dec 27, 2014 at 5:05:08 AM

Latest Report: Dec 27, 2014 at 3:54 AM


Visibility: 10 mi

Pressure: 30.12 "Hg

Humidity: 72%

Dew point: 46 °F

Location of MemphisLocation

Historic Weather in Memphis — Graph

°F

Memphis temperature yesterday

Maximum temperature yesterday: 55 °F (at 10:54 AM)
Minimum temperature yesterday: 41 °F (at 6:54 AM)
Average temperature yesterday: 49 °F

Past Weeks' High & Low Weather Summary

 TemperatureHumidityPressure
High65 °F (Dec 14, 1:54 PM)97% (Dec 22, 11:54 PM)30.42 "Hg (Dec 22, 11:54 PM)
Low32 °F (Dec 17, 2:54 AM)39% (Dec 21, 2:54 PM)29.59 "Hg (Dec 22, 3:54 PM)
Average48 °F71%30.09 "Hg
* Reported Dec 12 3:54 AM — Dec 27 3:54 AM, Memphis, Weather by CustomWeather, © 2014

Note: Actual official high and low records may vary slightly from our data, if they occured in-between our weather recording intervals... More about our weather records

Advertising

Memphis weather history for previous 24 hours

 ConditionsComfort  
Time TempWeatherWind HumidityBarometerVisibility
3:54 AM
Dec 27
55 °FMostly cloudy.9 mph72%30.12 "Hg10 mi
2:54 AM54 °FOvercast.8 mph72%30.12 "Hg9 mi
1:54 AM54 °FMostly cloudy.9 mph72%30.13 "Hg10 mi
12:54 AM53 °FOvercast.6 mph74%30.14 "Hg10 mi
11:54 PM
Dec 26
53 °FOvercast.8 mph72%30.14 "Hg10 mi
10:54 PM52 °FMostly cloudy.9 mph75%30.14 "Hg10 mi
9:54 PM51 °FPassing clouds.8 mph74%30.14 "Hg10 mi
8:54 PM51 °FPartly cloudy.10 mph74%30.14 "Hg10 mi
7:54 PM51 °FMostly cloudy.9 mph71%30.14 "Hg10 mi
6:54 PM50 °FPassing clouds.13 mph71%30.14 "Hg10 mi
5:54 PM51 °FPassing clouds.9 mph69%30.14 "Hg10 mi
4:54 PM53 °FPassing clouds.10 mph59%30.13 "Hg10 mi
3:54 PM54 °FMostly cloudy.14 mph49%30.14 "Hg10 mi
2:54 PM55 °FPartly sunny.14 mph45%30.14 "Hg10 mi
1:54 PM55 °FOvercast.10 mph51%30.18 "Hg10 mi
12:54 PM54 °FOvercast.10 mph53%30.18 "Hg10 mi
11:54 AM54 °FMore clouds than sun.14 mph53%30.21 "Hg10 mi
10:54 AM55 °FBroken clouds.10 mph53%30.24 "Hg10 mi
9:54 AM48 °FMore clouds than sun.7 mph66%30.25 "Hg10 mi
8:54 AM45 °FMore clouds than sun.6 mph71%30.24 "Hg10 mi
7:54 AM44 °FMore clouds than sun.3 mph73%30.23 "Hg10 mi
6:54 AM41 °FBroken clouds.5 mph80%30.22 "Hg10 mi
5:54 AM42 °FPassing clouds.7 mph76%30.19 "Hg10 mi
Weather by CustomWeather, © 2014

See weather overviewHow to use our weather pages